Weather History for Barnwell, SC

Change the Weather History Date:

Thursday, October 25, 2012

  Actual Average (KOGB) Record (KOGB)
Temperature  
Mean Temperature 72 °F 62 °F  
Max Temperature 84 °F 74 °F 85 °F (1953)
Min Temperature 59 °F 50 °F 32 °F (2006)
Degree Days  
Heating Degree Days 0 4  
Month to date heating degree days 55  
Since 1 July heating degree days 59  
Cooling Degree Days 6 2  
Month to date cooling degree days 85  
Year to date cooling degree days 2079  
Growing Degree Days 22 (Base 50)    
Moisture  
Dew Point 61 °F    
Average Humidity 76    
Maximum Humidity 100    
Minimum Humidity 45    
Precipitation  
Precipitation 0.00 in 0.07 in 0.94 in (1972)
Month to date precipitation 2.97  
Year to date precipitation 40.07  
Sea Level Pressure  
Sea Level Pressure 30.08 in    
Wind  
Wind Speed 3 mph (East)    
Max Wind Speed 14 mph    
Max Gust Speed 17 mph    
Visibility 10 miles    
Events Thunderstorm    
T = Trace of Precipitation, MM = Missing Value Source: NWS Daily Summary

Daily Weather History Graph

Daily Weather History Graph

Search for Another Location

Airport:

Trip Planner

Search our weather history database for the weather conditions in past years. The results will help you decide how hot, cold, wet, or windy it might be!

Date:

Astronomy

Oct. 25, 2012 Rise Set
Actual Time 7:38 AM EDT 6:40 PM EDT
Civil Twilight 7:13 AM EDT 7:05 PM EDT
Nautical Twilight 6:43 AM EDT 7:34 PM EDT
Astronomical Twilight 6:15 AM EDT 8:03 PM EDT
Moon 4:16 PM EDT (10/25) 3:44 AM EDT (10/25)
Length of Visible Light 11h 52m
Length of Day
11h 01m
Waxing Gibbous, 84% of the Moon is Illuminated
Oct 25
Waxing Gibbous
Oct 29
Full
Nov 6
Last Quarter
Nov 13
New
Nov 20
First Quarter

Hourly Weather History & Observations

Time (EDT) Temp. Heat Index Dew Point Humidity Pressure Visibility Wind Dir Wind Speed Gust Speed Precip Events Conditions
12:15 AM 60.8 °F - 57.2 °F 88% 30.12 in 10.0 mi Calm Calm - N/A Thunderstorm Clear
12:35 AM 60.8 °F - 57.2 °F 88% 30.12 in 10.0 mi Calm Calm - N/A   Clear
12:55 AM 60.8 °F - 59.0 °F 94% 30.12 in 10.0 mi Calm Calm - N/A   Clear
1:15 AM 60.8 °F - 57.2 °F 88% 30.11 in 10.0 mi Calm Calm - N/A   Clear
1:35 AM 60.8 °F - 59.0 °F 94% 30.11 in 10.0 mi Calm Calm - N/A   Clear
1:55 AM 60.8 °F - 59.0 °F 94% 30.11 in 10.0 mi Calm Calm - N/A   Clear
2:15 AM 60.8 °F - 59.0 °F 94% 30.10 in 10.0 mi Calm Calm - N/A   Clear
2:35 AM 59.0 °F - 57.2 °F 94% 30.10 in 10.0 mi Calm Calm - N/A   Clear
2:55 AM 60.8 °F - 57.2 °F 88% 30.10 in 10.0 mi Calm Calm - N/A   Clear
3:15 AM 59.0 °F - 57.2 °F 94% 30.09 in 10.0 mi Calm Calm - N/A   Clear
3:35 AM 59.0 °F - 57.2 °F 94% 30.09 in 10.0 mi Calm Calm - N/A   Clear
3:55 AM 59.0 °F - 57.2 °F 94% 30.09 in 10.0 mi Calm Calm - N/A   Clear
4:15 AM 59.0 °F - 57.2 °F 94% 30.08 in 10.0 mi Calm Calm - N/A   Clear
4:35 AM 59.0 °F - 57.2 °F 94% 30.07 in 10.0 mi Calm Calm - N/A   Clear
4:55 AM 60.8 °F - 59.0 °F 94% 30.08 in 10.0 mi Calm Calm - N/A   Clear
5:15 AM 60.8 °F - 59.0 °F 94% 30.08 in 10.0 mi Calm Calm - N/A   Clear
5:35 AM 59.0 °F - 59.0 °F 100% 30.08 in 9.0 mi Calm Calm - N/A   Clear
5:55 AM 59.0 °F - 59.0 °F 100% 30.08 in 9.0 mi Calm Calm - N/A   Clear
6:15 AM 59.0 °F - 57.2 °F 94% 30.09 in 8.0 mi Calm Calm - N/A   Clear
6:35 AM 59.0 °F - 57.2 °F 94% 30.09 in 10.0 mi Calm Calm - N/A   Clear
6:55 AM 59.0 °F - 57.2 °F 94% 30.09 in 7.0 mi Calm Calm - N/A   Clear
7:35 AM 59.0 °F - 57.2 °F 94% 30.10 in 8.0 mi Calm Calm - N/A   Clear
7:55 AM 59.0 °F - 59.0 °F 100% 30.10 in 7.0 mi Calm Calm - N/A   Clear
8:35 AM 60.8 °F - 60.8 °F 100% 30.11 in 9.0 mi Calm Calm - N/A   Mostly Cloudy
8:55 AM 62.6 °F - 60.8 °F 94% 30.11 in 10.0 mi Calm Calm - N/A   Mostly Cloudy
9:15 AM 62.6 °F - 60.8 °F 94% 30.11 in 10.0 mi Calm Calm - N/A   Mostly Cloudy
9:35 AM 64.4 °F - 62.6 °F 94% 30.11 in 10.0 mi Calm Calm - N/A   Mostly Cloudy
10:15 AM 71.6 °F - 62.6 °F 73% 30.11 in 10.0 mi East 8.1 mph - N/A   Clear
10:35 AM 73.4 °F - 62.6 °F 69% 30.11 in 10.0 mi East 5.8 mph - N/A   Clear
10:55 AM 75.2 °F - 62.6 °F 65% 30.11 in 10.0 mi East 9.2 mph - N/A   Clear
11:15 AM 77.0 °F - 62.6 °F 61% 30.11 in 10.0 mi East 12.7 mph - N/A   Clear
11:55 AM 78.8 °F - 62.6 °F 57% 30.10 in 10.0 mi East 8.1 mph - N/A   Clear
12:15 PM 80.6 °F 81.8 °F 62.6 °F 54% 30.10 in 10.0 mi East 8.1 mph - N/A   Clear
12:55 PM 82.4 °F 82.9 °F 60.8 °F 48% 30.09 in 10.0 mi East 9.2 mph - N/A   Partly Cloudy
1:15 PM 80.6 °F 81.5 °F 60.8 °F 51% 30.08 in 10.0 mi East 11.5 mph - N/A   Scattered Clouds
1:35 PM 82.4 °F 82.9 °F 60.8 °F 48% 30.07 in 10.0 mi East 8.1 mph - N/A   Mostly Cloudy
1:55 PM 82.4 °F 82.9 °F 60.8 °F 48% 30.06 in 10.0 mi ESE 9.2 mph - N/A   Mostly Cloudy
2:15 PM 82.4 °F 82.9 °F 60.8 °F 48% 30.05 in 10.0 mi East 6.9 mph - N/A   Mostly Cloudy
2:35 PM 82.4 °F 82.5 °F 59.0 °F 45% 30.05 in 10.0 mi East 10.4 mph - N/A   Mostly Cloudy
2:55 PM 82.4 °F 82.9 °F 60.8 °F 48% 30.05 in 10.0 mi ESE 9.2 mph - N/A   Mostly Cloudy
3:15 PM 82.4 °F 82.9 °F 60.8 °F 48% 30.04 in 10.0 mi ENE 6.9 mph - N/A   Partly Cloudy
3:35 PM 82.4 °F 82.9 °F 60.8 °F 48% 30.04 in 10.0 mi ENE 11.5 mph - N/A   Scattered Clouds
4:15 PM 84.2 °F 85.0 °F 62.6 °F 48% 30.03 in 10.0 mi East 10.4 mph - N/A   Partly Cloudy
4:35 PM 82.4 °F 83.4 °F 62.6 °F 51% 30.03 in 10.0 mi East 10.4 mph 16.1 mph N/A   Partly Cloudy
4:55 PM 82.4 °F 83.4 °F 62.6 °F 51% 30.03 in 10.0 mi East 10.4 mph 17.3 mph N/A   Partly Cloudy
5:15 PM 82.4 °F 83.4 °F 62.6 °F 51% 30.03 in 10.0 mi East 9.2 mph - N/A   Partly Cloudy
5:35 PM 82.4 °F 83.4 °F 62.6 °F 51% 30.03 in 10.0 mi East 13.8 mph - N/A   Partly Cloudy
5:55 PM 80.6 °F 82.3 °F 64.4 °F 58% 30.04 in 10.0 mi East 10.4 mph - N/A   Clear
6:15 PM 78.8 °F - 64.4 °F 61% 30.04 in 10.0 mi East 8.1 mph - N/A   Clear
6:35 PM 78.8 °F - 64.4 °F 61% 30.05 in 10.0 mi ENE 5.8 mph - N/A   Partly Cloudy
6:55 PM 77.0 °F - 64.4 °F 65% 30.05 in 10.0 mi East 6.9 mph - N/A   Clear
7:15 PM 75.2 °F - 64.4 °F 69% 30.06 in 10.0 mi East 4.6 mph - N/A   Clear
7:35 PM 73.4 °F - 64.4 °F 73% 30.06 in 9.0 mi ENE 5.8 mph - N/A   Clear
7:55 PM 73.4 °F - 64.4 °F 73% 30.07 in 10.0 mi East 5.8 mph - N/A   Clear
8:15 PM 73.4 °F - 64.4 °F 73% 30.07 in 10.0 mi East 4.6 mph - N/A   Clear
8:35 PM 73.4 °F - 64.4 °F 73% 30.07 in 10.0 mi East 4.6 mph - N/A   Clear
8:55 PM 71.6 °F - 64.4 °F 78% 30.07 in 9.0 mi East 4.6 mph - N/A   Clear
9:15 PM 71.6 °F - 64.4 °F 78% 30.07 in 10.0 mi East 4.6 mph - N/A   Clear
9:35 PM 71.6 °F - 64.4 °F 78% 30.07 in 10.0 mi East 5.8 mph - N/A   Clear
10:15 PM 69.8 °F - 64.4 °F 83% 30.07 in 10.0 mi East 5.8 mph - N/A   Clear
10:35 PM 69.8 °F - 62.6 °F 78% 30.07 in 10.0 mi East 4.6 mph - N/A   Clear
10:55 PM 69.8 °F - 62.6 °F 78% 30.06 in 10.0 mi ENE 4.6 mph - N/A   Clear
11:15 PM 68.0 °F - 64.4 °F 88% 30.06 in 10.0 mi ENE 4.6 mph - N/A   Clear
11:35 PM 68.0 °F - 64.4 °F 88% 30.05 in 10.0 mi ENE 4.6 mph - N/A   Clear
11:55 PM 68.0 °F - 64.4 °F 88% 30.05 in 10.0 mi Calm Calm - N/A   Clear